Newport News, VA

5:49 AM EST on January 22, 2018 (GMT -0500)
Newport News-Williamsburg International

Weather History for KPHF - December, 2011

Change the Weather History Date:

Tuesday, December 27, 2011

  Actual Average Record
Temperature  
Mean Temperature 48 °F -  
Max Temperature 61 °F 48 °F 75 °F (2015)
Min Temperature 34 °F 31 °F 18 °F (1977)
Degree Days  
Heating Degree Days 18    
Moisture  
Dew Point 47 °F    
Average Humidity 83    
Maximum Humidity 100    
Minimum Humidity 62    
Precipitation  
Precipitation 0.23 in - - ()
Sea Level Pressure  
Sea Level Pressure 29.74 in    
Wind  
Wind Speed 10 mph (South)    
Max Wind Speed 24 mph    
Max Gust Speed 39 mph    
Visibility 8 miles    
Events Rain    
Averages and records for this station are not official NWS values.
T = Trace of Precipitation, MM = Missing Value Source: NWS Daily Summary

Daily Weather History Graph

Daily Weather History Graph

Search for Another Location

Airport or City:

Trip Planner

Search our weather history database for the weather conditions in past years. The results will help you decide how hot, cold, wet, or windy it might be!

Date:

Astronomy

Dec. 27, 2011 Rise Set
Actual Time 7:18 AM EST 4:55 PM EST
Civil Twilight 6:49 AM EST 5:24 PM EST
Nautical Twilight 6:16 AM EST 5:57 PM EST
Astronomical Twilight 5:44 AM EST 6:29 PM EST
Moon 9:16 AM EST (12/27) 8:22 PM EST (12/27)
Length of Visible Light 10h 35m
Length of Day
9h 37m
Waxing Crescent, 11% of the Moon is Illuminated
Dec 27
Waxing Crescent
Jan 1
First Quarter
Jan 9
Full
Jan 16
Last Quarter
Jan 23
New

Hourly Weather History & Observations

Time (EST) Temp. Windchill Dew Point Humidity Pressure Visibility Wind Dir Wind Speed Gust Speed Precip Events Conditions
12:54 AM 34.0 °F - 30.9 °F 89% 30.26 in 10.0 mi Calm Calm - N/A   Clear
1:54 AM 36.0 °F - 32.0 °F 86% 30.25 in 10.0 mi Calm Calm - N/A   Clear
2:54 AM 39.9 °F 35.1 °F 34.0 °F 79% 30.25 in 10.0 mi SSW 6.9 mph - N/A   Clear
3:54 AM 42.1 °F 39.2 °F 33.1 °F 70% 30.18 in 10.0 mi South 4.6 mph - N/A   Clear
4:54 AM 41.0 °F 38.0 °F 35.1 °F 79% 30.18 in 10.0 mi SW 4.6 mph - N/A   Clear
5:54 AM 43.0 °F 40.3 °F 35.1 °F 74% 30.16 in 10.0 mi South 4.6 mph - N/A   Partly Cloudy
6:54 AM 43.0 °F 40.3 °F 34.0 °F 71% 30.11 in 10.0 mi SE 4.6 mph - N/A   Clear
7:54 AM 43.0 °F 38.8 °F 35.1 °F 74% 30.04 in 10.0 mi East 6.9 mph - N/A   Scattered Clouds
8:54 AM 48.2 °F - 35.6 °F 62% 30.02 in 10.0 mi SE 10.4 mph - N/A   Scattered Clouds
9:54 AM 50.0 °F - 39.9 °F 68% 29.98 in 10.0 mi SE 13.8 mph 21.9 mph N/A   Mostly Cloudy
10:54 AM 50.0 °F - 45.0 °F 83% 29.89 in 7.0 mi SE 12.7 mph - 0.01 in Rain Light Rain
11:18 AM 51.8 °F - 46.4 °F 82% 29.87 in 10.0 mi SSE 8.1 mph - 0.01 in Rain Light Rain
11:54 AM 53.1 °F - 48.9 °F 86% 29.81 in 10.0 mi SSE 12.7 mph - 0.01 in Rain Light Rain
12:54 PM 55.9 °F - 52.0 °F 87% 29.70 in 7.0 mi SSE 15.0 mph 24.2 mph 0.02 in Rain Light Rain
1:37 PM 55.4 °F - 53.6 °F 94% 29.64 in 9.0 mi SSE 18.4 mph 27.6 mph 0.02 in Rain Light Rain
1:54 PM 57.0 °F - 54.0 °F 89% 29.63 in 7.0 mi SSE 18.4 mph 26.5 mph 0.03 in Rain Light Rain
2:36 PM 57.2 °F - 55.4 °F 94% 29.59 in 2.5 mi South 18.4 mph 31.1 mph 0.06 in Rain Light Rain
2:43 PM 57.2 °F - 55.4 °F 94% 29.59 in 8.0 mi South 15.0 mph 25.3 mph 0.07 in Rain Light Rain
2:52 PM 57.2 °F - 55.4 °F 94% 29.55 in 1.0 mi SSE 23.0 mph 32.2 mph 0.20 in Rain Heavy Rain
2:54 PM 57.2 °F - 55.4 °F 94% 29.54 in 0.8 mi SSE 24.2 mph 32.2 mph N/A Rain Heavy Rain
3:00 PM 57.2 °F - 55.4 °F 94% 29.54 in 1.0 mi SSE 23.0 mph 34.5 mph 0.06 in Rain Heavy Rain
3:11 PM 57.2 °F - 57.2 °F 100% 29.53 in 2.5 mi South 21.9 mph 31.1 mph 0.09 in Rain Light Rain
3:18 PM 57.2 °F - 57.2 °F 100% 29.53 in 8.0 mi SSE 17.3 mph 29.9 mph 0.09 in Rain Light Rain
3:54 PM 59.0 °F - 57.0 °F 93% 29.50 in 4.0 mi South 17.3 mph 29.9 mph 0.13 in Rain Light Rain
4:29 PM 60.8 °F - 57.2 °F 88% 29.50 in 10.0 mi South 19.6 mph 27.6 mph 0.03 in Rain Light Rain
4:42 PM 60.8 °F - 57.2 °F 88% 29.49 in 10.0 mi South 24.2 mph 39.1 mph 0.03 in   Overcast
4:54 PM 61.0 °F - 57.9 °F 90% 29.49 in 10.0 mi South 18.4 mph 31.1 mph 0.03 in   Overcast
5:54 PM 61.0 °F - 57.0 °F 87% 29.50 in 10.0 mi SSW 16.1 mph - 0.00 in   Overcast
6:04 PM 60.8 °F - 57.2 °F 88% 29.50 in 10.0 mi SW 13.8 mph - N/A   Overcast
6:15 PM 60.8 °F - 55.4 °F 82% 29.51 in 10.0 mi SW 13.8 mph 23.0 mph N/A   Mostly Cloudy
6:54 PM 60.1 °F - 55.0 °F 83% 29.53 in 10.0 mi WSW 19.6 mph 25.3 mph N/A   Clear
7:54 PM 59.0 °F - 48.9 °F 69% 29.55 in 10.0 mi West 19.6 mph 26.5 mph N/A   Overcast
8:54 PM 55.0 °F - 45.0 °F 69% 29.55 in 10.0 mi WSW 16.1 mph 24.2 mph N/A   Clear
9:54 PM 53.1 °F - 42.1 °F 66% 29.54 in 10.0 mi WSW 13.8 mph - N/A   Clear
10:54 PM 52.0 °F - 42.1 °F 69% 29.54 in 10.0 mi West 15.0 mph - N/A   Clear
11:54 PM 51.1 °F - 41.0 °F 68% 29.55 in 10.0 mi WSW 13.8 mph 23.0 mph N/A   Clear